Погода в Украинке

Россия / Амурская область     51°08′41″N   128°30′33″E
темп.,
°C
ветер,
м/с
пор.,
м/с
влажн.,
%
обл.,
%
осадки,
мм/ч
давл.,
гПа
погр.,
м
8 марта, пн
пн800:00−17ююз1210095 0.0 102620
03:00−18ююз2310092 0.1 102620
06:00−18ю449619 0.0 102555
09:00−14ю6109316 0.0 1023268
12:00−8ю7119076 0.0 1020424
15:00−6ю7129069 0.0 1015597
18:00−4ю71487100 0.0 1011525
21:00−4ююз71389100 0.1 1008443
9 марта, вт
вт900:00−4ююз71293100 0.9 1005449
03:00−6юз4694100 1.7 1004115
06:00−6сз5109598 0.3 1004377
09:00−10сз8138499 0.4 1008575
12:00−6ссз9137733 0.0 10121037
15:00−2ссз9157531 0.0 10141374
18:00−5сз7167760 0.0 1018681
21:00−9сз4108230 0.0 1022177
10 марта, ср
ср1000:00−12зсз34840 0.0 102338
03:00−14зюз23850 0.0 102320
06:00−12ююз448367 0.0 102279
09:00−9ю6108184 0.0 1020328
12:00−5ююз71077100 0.0 1017652
15:00−2ююз5979100 0.0 1015729
18:00−5зюз338467 0.1 101524
21:00−6з469167 0.1 1018121
11 марта, чт
чт1100:00−9сз47900 0.0 1020122
03:00−12сз46870 0.0 102487
06:00−15сз34820 0.0 102733
09:00−12сз37800 0.0 1029222
12:00−6зсз24700 0.0 1029396
15:00−3юз35720 0.0 1027747
18:00−7ю45850 0.0 102685
21:00−9ю510850 0.0 1027156
12 марта, пт
пт1200:00−10ююз469032 0.0 102798
03:00−11юз239315 0.0 102721
06:00−12зюз229333 0.0 102821
09:00−8ююз349352 0.0 1027135
12:00−3ю6109235 0.0 1025388
15:00−1ююз7119217 0.0 1022526
18:00−1ююз46904 0.0 1020106
21:00−3ююз58862 0.0 1021141